Tracking 35237 objects as of 6-Sep-2026
HD Live streaming from Space Station
objects crossing your sky now

SL-23 DEB

Track SL-23 DEB now!


NORAD ID: 43385
Int'l Code: 2009-009D
Launch date: February 26, 2009
Source: Commonwealth of Independent States (former USSR) (CIS)
Launch site: TYURATAM MISSILE AND SPACE COMPLEX (TTMTR)

Note: This is SATELLITE DEBRIS
Your satellite tracking list
Your tracking list is empty




NASA's NSSDC Master Catalog

Two Line Element Set (TLE):
1 43385U 09009D   25049.24029079 -.00000114  00000-0  00000-0 0  9991
2 43385  34.7773 327.1904 6947111 106.0333   1.5684  2.21230851 93816
Source of the keplerian elements: AFSPC